^^
Datos históricos de la estación: Murcia-Puente Tocinos
Diario Informe para Julio 12, 2019 Unidades:  Inglés    Métrico   Ambas
Diario Semanal Mensual Anual Configurable
  Máximo: Mínimo: Media:
Temperatura: 98.2 °F 74.7 °F 84.6 °F
Punto de rocio: 65.7 °F 49.5 °F 57.9 °F
Humedad: 71% 24% 43%
Velocidad viento: 12.3mph 0mph 5.3mph
Racha viento: 23mph - -
Viento- - SE
Presión: 30 in 29.9 in -
Precipitación: 0 in    
Historical Graphs
 
 
Tabla de datos para Julio 12, 2019
Hora Temperatura Punto de rocio Presión Viento Velocidad viento Racha viento Humedad Intensidad lluvia(por hora) Nubes
00:04 77.9 °F 62.4 °F 29.9 in NNE 5.9 mph 8.1 mph 59% 0 in CLR
00:09 77.7 °F 62.8 °F 29.9 in NE 5.9 mph 8.1 mph 60% 0 in CLR
00:14 77.7 °F 62.8 °F 29.9 in NE 5.9 mph 5.8 mph 60% 0 in CLR
00:19 77.7 °F 62.8 °F 29.9 in NE 4.7 mph 6.2 mph 60% 0 in CLR
00:24 77.5 °F 63 °F 29.9 in NE 4.7 mph 6.9 mph 61% 0 in CLR
00:29 77.5 °F 63.5 °F 29.9 in NE 4.7 mph 6.9 mph 62% 0 in CLR
00:34 77.5 °F 63.9 °F 29.9 in NNE 4.7 mph 6.9 mph 63% 0 in CLR
00:39 77.4 °F 64.2 °F 29.9 in NNE 4.3 mph 6.9 mph 64% 0 in CLR
00:44 77.2 °F 64.6 °F 29.9 in NNE 4.3 mph 6.9 mph 65% 0 in CLR
00:49 77 °F 64.2 °F 29.9 in NE 4.7 mph 5.8 mph 65% 0 in CLR
00:54 77.2 °F 64.9 °F 29.9 in NE 4.7 mph 6.4 mph 66% 0 in CLR
00:59 77.2 °F 64.9 °F 29.9 in NE 4.3 mph 4.6 mph 66% 0 in CLR
01:04 77.2 °F 64.9 °F 29.9 in NE 4.3 mph 3.5 mph 66% 0 in CLR
01:09 77.2 °F 64.6 °F 29.9 in NNE 2.4 mph 3.5 mph 65% 0 in CLR
01:14 77 °F 64.8 °F 29.9 in NE 2.4 mph 3.5 mph 66% 0 in CLR
01:19 76.8 °F 64.6 °F 29.9 in NE 2 mph 2.3 mph 66% 0 in CLR
01:24 76.6 °F 64.4 °F 29.9 in NE 2 mph 2 mph 66% 0 in CLR
01:29 76.6 °F 64.4 °F 29.9 in NE 1.8 mph 3.5 mph 66% 0 in CLR
01:34 76.5 °F 64.8 °F 29.9 in NNE 1.8 mph 4.6 mph 67% 0 in CLR
01:39 76.3 °F 64.6 °F 29.9 in NNE 3.1 mph 5.2 mph 67% 0 in CLR
01:44 76.3 °F 64.6 °F 29.9 in NNE 3.1 mph 4.6 mph 67% 0 in CLR
01:49 75.9 °F 64.2 °F 29.9 in NNE 2.4 mph 3.5 mph 67% 0 in CLR
01:54 75.9 °F 64.6 °F 29.9 in NNE 2.4 mph 4.6 mph 68% 0 in CLR
01:59 75.9 °F 64.9 °F 29.9 in NNE 2.4 mph 3.5 mph 69% 0 in CLR
02:04 75.9 °F 64.9 °F 29.9 in NNE 2.4 mph 3.6 mph 69% 0 in CLR
02:09 75.9 °F 64.9 °F 29.9 in NNE 2 mph 2.3 mph 69% 0 in CLR
02:14 75.9 °F 64.9 °F 29.9 in NNE 2 mph 2.3 mph 69% 0 in CLR
02:19 75.9 °F 64.9 °F 29.9 in NE 1.4 mph 3.5 mph 69% 0 in CLR
02:24 75.9 °F 64.9 °F 29.9 in NE 1.4 mph 3.5 mph 69% 0 in CLR
02:29 75.9 °F 64.9 °F 29.9 in NE 2 mph 2.3 mph 69% 0 in CLR
02:34 75.9 °F 64.9 °F 29.9 in ESE 2 mph 2.4 mph 69% 0 in CLR
02:39 76.1 °F 65.1 °F 29.9 in ESE 2 mph 3.5 mph 69% 0 in CLR
02:44 76.3 °F 64.9 °F 29.9 in ESE 2 mph 2.4 mph 68% 0 in CLR
02:49 76.1 °F 64.8 °F 29.9 in ESE 1.8 mph 2.9 mph 68% 0 in CLR
02:54 75.9 °F 64.6 °F 29.9 in ESE 1.8 mph   68% 0 in CLR
02:59 75.9 °F 64.9 °F 29.9 in NW 1.4 mph 3.5 mph 69% 0 in CLR
03:04 75.7 °F 64.8 °F 29.9 in WNW 1.4 mph 2.9 mph 69% 0 in CLR
03:09 75.7 °F 65.3 °F 29.9 in WNW 2 mph   70% 0 in CLR
03:14 75.7 °F 65.3 °F 29.9 in West 2 mph 2.3 mph 70% 0 in CLR
03:19 75.6 °F 65.1 °F 29.9 in Calm   2.3 mph 70% 0 in CLR
03:24 75.6 °F 65.1 °F 29.9 in Calm     70% 0 in CLR
03:29 75.7 °F 65.7 °F 29.9 in Calm     71% 0 in CLR
03:34 75.6 °F 64.8 °F 29.9 in Calm   2.4 mph 69% 0 in CLR
03:39 75.6 °F 64.2 °F 29.9 in ESE 1.8 mph 4.6 mph 68% 0 in CLR
03:44 75.4 °F 63.7 °F 29.9 in SSE 1.8 mph 4.6 mph 67% 0 in CLR
03:49 75.2 °F 63.1 °F 29.9 in SSE 2.9 mph 5.4 mph 66% 0 in CLR
03:54 75 °F 63.3 °F 29.9 in SSE 2.9 mph 4.6 mph 67% 0 in CLR
03:59 75 °F 62.4 °F 29.9 in SSE 3.1 mph 3.5 mph 65% 0 in CLR
04:04 75.2 °F 61.3 °F 29.9 in SSE 3.1 mph 4.6 mph 62% 0 in CLR
04:09 75.4 °F 61 °F 29.9 in SSW 2.9 mph 3.5 mph 61% 0 in CLR
04:14 75.4 °F 61 °F 29.9 in WSW 2.9 mph 3.5 mph 61% 0 in CLR
04:19 75.6 °F 61.5 °F 29.9 in West 2 mph 5.8 mph 62% 0 in CLR
04:24 75.7 °F 62.2 °F 29.9 in West 2 mph 4.6 mph 63% 0 in CLR
04:29 75.6 °F 61.2 °F 29.9 in West 2.9 mph 4.6 mph 61% 0 in CLR
04:34 75.6 °F 60.3 °F 29.9 in WSW 2.9 mph 3.5 mph 59% 0 in CLR
04:39 75.6 °F 60.3 °F 29.9 in SW 2.9 mph 4.6 mph 59% 0 in CLR
04:44 75.6 °F 60.3 °F 29.9 in SW 2.9 mph 3.5 mph 59% 0 in CLR
04:49 75.7 °F 60.4 °F 29.9 in SW 2.9 mph 2.3 mph 59% 0 in CLR
04:54 75.7 °F 60.4 °F 29.9 in WSW 2.9 mph 4.6 mph 59% 0 in CLR
04:59 75.7 °F 59.9 °F 29.9 in SE 2 mph 5.2 mph 58% 0 in CLR
05:04 75.7 °F 60.4 °F 29.9 in South 2 mph 3.5 mph 59% 0 in CLR
05:09 75.6 °F 60.3 °F 29.9 in SW 2.9 mph 5.8 mph 59% 0 in CLR
05:14 75.6 °F 60.6 °F 29.9 in WSW 2.9 mph 4.6 mph 60% 0 in CLR
05:19 75.6 °F 60.6 °F 29.9 in SW 3.1 mph 5.8 mph 60% 0 in CLR
05:24 75.6 °F 60.6 °F 29.9 in WSW 3.1 mph 5.4 mph 60% 0 in CLR
05:29 75.4 °F 60.4 °F 29.9 in SW 3.6 mph 5.9 mph 60% 0 in CLR
05:34 75.4 °F 60.1 °F 29.9 in SSW 3.6 mph 5.9 mph 59% 0 in CLR
05:39 75 °F 59.2 °F 29.9 in SSW 5.2 mph 8.1 mph 58% 0 in CLR
05:44 75 °F 59.7 °F 29.9 in SSW 5.2 mph 5.8 mph 59% 0 in CLR
05:49 74.8 °F 59.5 °F 29.9 in SSW 4.3 mph 6.9 mph 59% 0 in CLR
05:54 74.8 °F 59.5 °F 29.9 in South 4.3 mph 8.1 mph 59% 0 in CLR
05:59 74.8 °F 59.5 °F 29.9 in WSW 5.2 mph 6.9 mph 59% 0 in CLR
06:04 74.8 °F 59.5 °F 29.9 in WSW 5.2 mph 5.8 mph 59% 0 in CLR
06:09 74.8 °F 59.2 °F 29.9 in SW 4 mph 4.6 mph 58% 0 in CLR
06:14 74.7 °F 58.8 °F 29.9 in WSW 4 mph 4.7 mph 58% 0 in CLR
06:19 74.7 °F 58.8 °F 29.9 in WSW 3.1 mph 4.6 mph 58% 0 in CLR
06:24 74.7 °F 58.8 °F 29.9 in SW 3.1 mph 4.6 mph 58% 0 in CLR
06:29 74.7 °F 58.8 °F 29.9 in SW 3.6 mph 5.8 mph 58% 0 in CLR
06:34 74.7 °F 58.8 °F 29.9 in SW 3.6 mph 4.6 mph 58% 0 in CLR
06:39 74.7 °F 58.8 °F 29.9 in SSW 4 mph 4.7 mph 58% 0 in CLR
06:44 74.8 °F 58.6 °F 29.9 in WSW 4 mph 5.8 mph 57% 0 in CLR
06:49 74.8 °F 58.6 °F 29.9 in WSW 3.6 mph 4.6 mph 57% 0 in CLR
06:54 74.8 °F 58.6 °F 29.9 in SW 3.6 mph 4.7 mph 57% 0 in CLR
06:59 74.8 °F 58.6 °F 29.9 in WSW 4 mph 5.9 mph 57% 0 in CLR
07:04 74.8 °F 58.1 °F 29.9 in SW 4 mph 5.8 mph 56% 0 in CLR
07:09 74.8 °F 58.1 °F 29.9 in SW 4 mph 6.9 mph 56% 0 in CLR
07:14 75 °F 58.3 °F 29.9 in SSW 4 mph 4.6 mph 56% 0 in CLR
07:19 75 °F 58.3 °F 29.9 in SW 3.6 mph 5.2 mph 56% 0 in CLR
07:24 75 °F 58.3 °F 29.9 in WSW 3.6 mph 4.6 mph 56% 0 in CLR
07:29 75 °F 58.3 °F 29.9 in SW 3.6 mph 4.6 mph 56% 0 in CLR
07:34 75.2 °F 58.5 °F 29.9 in SW 3.6 mph 3.5 mph 56% 0 in CLR
07:39 75.4 °F 58.6 °F 29.9 in WSW 2.9 mph 4.6 mph 56% 0 in CLR
07:44 75.4 °F 58.6 °F 29.9 in WSW 2.9 mph 5.8 mph 56% 0 in CLR
07:49 75.6 °F 58.3 °F 29.9 in West 2.9 mph 4.6 mph 55% 0 in CLR
07:54 75.6 °F 58.3 °F 29.9 in WSW 2.9 mph 4.6 mph 55% 0 in CLR
07:59 75.6 °F 58.3 °F 29.9 in SW 2.9 mph 3.6 mph 55% 0 in CLR
08:04 75.7 °F 58.5 °F 29.9 in West 2.9 mph 4 mph 55% 0 in CLR
08:09 75.7 °F 58.5 °F 29.9 in WNW 2.9 mph 4.6 mph 55% 0 in CLR
08:14 75.7 °F 58.5 °F 29.9 in West 2.9 mph 4.6 mph 55% 0 in CLR
08:19 75.6 °F 58.3 °F 29.9 in West 3.1 mph 4.6 mph 55% 0 in CLR
08:24 75.6 °F 58.3 °F 29.9 in WNW 3.1 mph 4.6 mph 55% 0 in CLR
08:29 75.7 °F 58.5 °F 29.9 in WNW 2.9 mph 4.6 mph 55% 0 in CLR
08:34 75.7 °F 58.5 °F 29.9 in WNW 2.9 mph 4.6 mph 55% 0 in CLR
08:39 75.9 °F 58.6 °F 29.9 in NW 3.1 mph 4.6 mph 55% 0 in CLR
08:44 76.1 °F 58.8 °F 29.9 in NW 3.1 mph 2.3 mph 55% 0 in CLR
08:49 76.6 °F 59.4 °F 29.9 in West 2 mph 3.5 mph 55% 0 in CLR
08:54 76.8 °F 59.4 °F 29.9 in NW 2 mph 3.6 mph 55% 0 in CLR
08:59 77.4 °F 59.4 °F 29.9 in NW 1.8 mph 2.3 mph 54% 0 in CLR
09:04 77.5 °F 59.5 °F 29.9 in West 1.8 mph 3.5 mph 54% 0 in CLR
09:09 77.9 °F 59.4 °F 29.9 in WSW 1.8 mph 3.6 mph 53% 0 in CLR
09:14 78.3 °F 59.7 °F 29.9 in SSW 1.8 mph 4.6 mph 53% 0 in CLR
09:19 78.4 °F 59.4 °F 29.9 in SW 2.4 mph 4.6 mph 52% 0 in CLR
09:24 78.4 °F 58.3 °F 29.9 in SW 2.4 mph 3.5 mph 50% 0 in CLR
09:29 79 °F 58.8 °F 29.9 in WSW 2.4 mph 3.5 mph 50% 0 in CLR
09:34 79.3 °F 58.5 °F 29.9 in WSW 2.4 mph 4.6 mph 49% 0 in CLR
09:39 79.9 °F 59 °F 29.9 in WSW 2.4 mph 4.6 mph 49% 0 in CLR
09:44 80.2 °F 59.4 °F 29.9 in SSW 2.4 mph 3.6 mph 49% 0 in CLR
09:49 80.6 °F 59.7 °F 29.9 in SSE 3.1 mph 6.9 mph 49% 0 in CLR
09:54 80.8 °F 59.7 °F 29.9 in SSW 3.1 mph 5.8 mph 49% 0 in CLR
09:59 81 °F 59.4 °F 29.9 in South 4 mph 6.9 mph 48% 0 in CLR
10:04 81.1 °F 59 °F 29.9 in South 4 mph 5.8 mph 47% 0 in CLR
10:09 81.3 °F 58.6 °F 29.9 in WSW 4.3 mph 5.9 mph 46% 0 in CLR
10:14 81.9 °F 58.5 °F 29.9 in West 4.3 mph 4.7 mph 45% 0 in CLR
10:19 82.2 °F 58.1 °F 29.9 in West 3.1 mph 5.9 mph 44% 0 in CLR
10:24 82.8 °F 57.9 °F 29.9 in West 3.1 mph 5.2 mph 43% 0 in CLR
10:29 83.1 °F 58.3 °F 29.9 in WSW 3.6 mph 4.7 mph 43% 0 in CLR
10:34 83.3 °F 57.7 °F 30 in WSW 3.6 mph 5.8 mph 42% 0 in CLR
10:39 83.7 °F 58.1 °F 30 in SSW 3.1 mph 5.8 mph 42% 0 in CLR
10:44 84 °F 57.7 °F 30 in SSW 3.1 mph 5.8 mph 41% 0 in CLR
10:49 84 °F 57.7 °F 29.9 in SW 3.6 mph 4.6 mph 41% 0 in CLR
10:54 84.6 °F 58.3 °F 29.9 in WNW 3.6 mph 4.6 mph 41% 0 in CLR
10:59 84.9 °F 57.9 °F 29.9 in WSW 2.4 mph 4.6 mph 40% 0 in CLR
11:04 85.3 °F 58.3 °F 29.9 in West 2.4 mph 3.5 mph 40% 0 in CLR
11:09 85.8 °F 58.6 °F 29.9 in West 1.8 mph   40% 0 in CLR
11:14 86.7 °F 58.1 °F 29.9 in NW 1.8 mph 4 mph 38% 0 in CLR
11:19 87.1 °F 57.7 °F 29.9 in NNW 2 mph 3.5 mph 37% 0 in CLR
11:24 87.3 °F 57.7 °F 29.9 in NNW 2 mph 3.5 mph 37% 0 in CLR
11:29 87.8 °F 56.7 °F 29.9 in WNW 2 mph 3.6 mph 35% 0 in CLR
11:34 88.2 °F 57 °F 29.9 in NW 2 mph 4.6 mph 35% 0 in CLR
11:39 88.9 °F 56.8 °F 29.9 in WNW 2.4 mph 5.9 mph 34% 0 in CLR
11:44 89.1 °F 57 °F 29.9 in WNW 2.4 mph 4.6 mph 34% 0 in CLR
11:49 89.4 °F 57.4 °F 29.9 in East 2.4 mph 5.8 mph 34% 0 in CLR
11:54 89.4 °F 57.4 °F 29.9 in East 2.4 mph 2.3 mph 34% 0 in CLR
11:59 90.1 °F 57.2 °F 29.9 in NE 2.4 mph 5.9 mph 33% 0 in CLR
12:04 90.3 °F 56.5 °F 29.9 in NE 2.4 mph 5.2 mph 32% 0 in CLR
12:09 90.3 °F 56.5 °F 29.9 in North 4 mph 5.8 mph 32% 0 in CLR
12:14 90.7 °F 55.9 °F 29.9 in NE 4 mph 4.6 mph 31% 0 in CLR
12:19 91 °F 56.1 °F 29.9 in NW 4 mph 6.9 mph 31% 0 in CLR
12:24 91.2 °F 55.6 °F 29.9 in NNE 4 mph 10.4 mph 30% 0 in CLR
12:29 91.2 °F 56.5 °F 29.9 in North 5.4 mph 3.5 mph 31% 0 in CLR
12:34 91.8 °F 55.9 °F 29.9 in NNE 5.4 mph 6.9 mph 30% 0 in CLR
12:39 91.8 °F 55.9 °F 29.9 in NE 4.3 mph 9.7 mph 30% 0 in CLR
12:44 92.1 °F 56.1 °F 29.9 in NNE 4.3 mph 5.4 mph 30% 0 in CLR
12:49 92.5 °F 56.5 °F 29.9 in NE 4.7 mph 3.5 mph 30% 0 in CLR
12:54 93 °F 57 °F 29.9 in NE 4.7 mph 10.4 mph 30% 0 in CLR
12:59 93.4 °F 56.5 °F 29.9 in NNE 4 mph 11.5 mph 29% 0 in CLR
13:04 93.6 °F 56.5 °F 29.9 in NNE 4 mph 5.8 mph 29% 0 in CLR
13:09 93.9 °F 55.9 °F 29.9 in NE 4.7 mph 10.4 mph 28% 0 in CLR
13:14 93.9 °F 55.9 °F 29.9 in North 4.7 mph 12.7 mph 28% 0 in CLR
13:19 94.3 °F 55.2 °F 29.9 in ENE 6.4 mph 6.9 mph 27% 0 in CLR
13:24 94.3 °F 54.1 °F 29.9 in NNE 6.4 mph 11.5 mph 26% 0 in CLR
13:29 94.6 °F 53.4 °F 29.9 in NE 6.9 mph 10.4 mph 25% 0 in CLR
13:34 94.6 °F 53.4 °F 29.9 in NNE 6.9 mph 10 mph 25% 0 in CLR
13:39 95 °F 53.8 °F 29.9 in NNE 6.9 mph 10.4 mph 25% 0 in CLR
13:44 95.4 °F 55 °F 29.9 in NNE 6.9 mph 12.7 mph 26% 0 in CLR
13:49 95.4 °F 56.1 °F 29.9 in East 6.9 mph 10.4 mph 27% 0 in CLR
13:54 95.9 °F 55.6 °F 29.9 in NNE 6.9 mph 15 mph 26% 0 in CLR
13:59 95.7 °F 56.5 °F 29.9 in NE 6.4 mph 13.8 mph 27% 0 in CLR
14:04 96.3 °F 56.8 °F 29.9 in NE 6.4 mph 9.2 mph 27% 0 in CLR
14:09 97 °F 56.5 °F 29.9 in North 5.9 mph 9.2 mph 26% 0 in CLR
14:14 97 °F 56.5 °F 29.9 in NNE 5.9 mph 12.7 mph 26% 0 in CLR
14:19 97 °F 57.6 °F 29.9 in NE 6.9 mph 8.7 mph 27% 0 in CLR
14:24 97.3 °F 56.7 °F 29.9 in NNE 6.9 mph 15 mph 26% 0 in CLR
14:29 97.5 °F 56.8 °F 29.9 in NE 6.9 mph 13.8 mph 26% 0 in CLR
14:34 97.3 °F 56.7 °F 29.9 in ENE 6.9 mph 12.7 mph 26% 0 in CLR
14:39 97.7 °F 55.9 °F 29.9 in ESE 9.2 mph 13 mph 25% 0 in CLR
14:44 98.1 °F 56.1 °F 29.9 in NE 9.2 mph 13.8 mph 25% 0 in CLR
14:49 98.2 °F 55.2 °F 29.9 in NE 8.1 mph 13.8 mph 24% 0 in CLR
14:54 97.9 °F 55 °F 29.9 in NNE 8.1 mph 15 mph 24% 0 in CLR
14:59 98.1 °F 56.1 °F 29.9 in NE 9.7 mph 11.5 mph 25% 0 in CLR
15:04 98.1 °F 56.1 °F 29.9 in East 9.7 mph 13.8 mph 25% 0 in CLR
15:09 97.9 °F 56.1 °F 29.9 in NNE 9.7 mph 13.8 mph 25% 0 in CLR
15:14 98.1 °F 56.1 °F 29.9 in NNE 9.7 mph 13.8 mph 25% 0 in CLR
15:19 98.1 °F 56.1 °F 29.9 in NNE 9.7 mph 17.3 mph 25% 0 in CLR
15:24 98.1 °F 56.1 °F 29.9 in SE 9.7 mph 13.8 mph 25% 0 in CLR
15:29 97.9 °F 56.1 °F 29.9 in ENE 10 mph 12.7 mph 25% 0 in CLR
15:34 97.3 °F 55.6 °F 29.9 in NE 10 mph 15 mph 25% 0 in CLR
15:39 97.5 °F 56.8 °F 29.9 in ENE 10 mph 13.8 mph 26% 0 in CLR
15:44 97.5 °F 57.9 °F 29.9 in NNE 10 mph 21.9 mph 27% 0 in CLR
15:49 97.2 °F 57.6 °F 29.9 in NE 10.2 mph 11.5 mph 27% 0 in CLR
15:54 96.8 °F 59.4 °F 29.9 in NE 10.2 mph 21.9 mph 29% 0 in CLR
15:59 96.6 °F 59.2 °F 29.9 in ENE 12.3 mph 16.1 mph 29% 0 in CLR
16:04 96.6 °F 59.2 °F 29.9 in NNE 12.3 mph 16.1 mph 29% 0 in CLR
16:09 96.4 °F 59.9 °F 29.9 in NE 12.3 mph 23 mph 30% 0 in CLR
16:14 96.3 °F 59.7 °F 29.9 in NE 12.3 mph 16.1 mph 30% 0 in CLR
16:19 96.3 °F 59.7 °F 29.9 in NE 12.3 mph 16.1 mph 30% 0 in CLR
16:24 95.9 °F 59.5 °F 29.9 in NE 12.3 mph 20.7 mph 30% 0 in CLR
16:29 95.7 °F 59.4 °F 29.9 in ENE 12.3 mph 19.6 mph 30% 0 in CLR
16:34 95.7 °F 59.4 °F 29.9 in NNE 12.3 mph 16.1 mph 30% 0 in CLR
16:39 95.5 °F 59.2 °F 29.9 in ENE 12.3 mph 18.4 mph 30% 0 in CLR
16:44 95.5 °F 59.2 °F 29.9 in NE 12.3 mph 17.3 mph 30% 0 in CLR
16:49 95.7 °F 60.3 °F 29.9 in NNE 11.8 mph 12.7 mph 31% 0 in CLR
16:54 95.9 °F 59.5 °F 29.9 in NNE 11.8 mph 16.8 mph 30% 0 in CLR
16:59 95.4 °F 59.9 °F 29.9 in ENE 11.4 mph 17.3 mph 31% 0 in CLR
17:04 95.2 °F 60.6 °F 29.9 in NNE 11.4 mph 18.4 mph 32% 0 in CLR
17:09 95.2 °F 60.6 °F 29.9 in NE 10.7 mph 14 mph 32% 0 in CLR
17:14 95 °F 59.5 °F 29.9 in North 10.7 mph 15 mph 31% 0 in CLR
17:19 94.5 °F 59.2 °F 29.9 in ENE 10.7 mph 19.6 mph 31% 0 in CLR
17:24 94.5 °F 59.2 °F 29.9 in ENE 10.7 mph 12.7 mph 31% 0 in CLR
17:29 94.5 °F 59.2 °F 29.9 in ENE 10.7 mph 11.5 mph 31% 0 in CLR
17:34 94.3 °F 58.1 °F 29.9 in NE 10.7 mph 15 mph 30% 0 in CLR
17:39 94.5 °F 57.4 °F 29.9 in NNE 10.7 mph 13.7 mph 29% 0 in CLR
17:44 94.5 °F 57.4 °F 29.9 in NNE 10.7 mph 16.1 mph 29% 0 in CLR
17:49 94.5 °F 56.3 °F 29.9 in ENE 11.2 mph 17.3 mph 28% 0 in CLR
17:54 94.5 °F 56.3 °F 29.9 in ENE 11.2 mph 15 mph 28% 0 in CLR
17:59 94.5 °F 56.3 °F 29.9 in NE 10.2 mph 14.7 mph 28% 0 in CLR
18:04 93.9 °F 55.9 °F 29.9 in ENE 10.2 mph 18.4 mph 28% 0 in CLR
18:09 93.6 °F 56.5 °F 29.9 in NNE 11.2 mph 14 mph 29% 0 in CLR
18:14 93 °F 56.1 °F 29.9 in East 11.2 mph 16.1 mph 29% 0 in CLR
18:19 93.2 °F 56.1 °F 29.9 in NE 10.7 mph 15.2 mph 29% 0 in CLR
18:24 93 °F 56.1 °F 29.9 in NE 10.7 mph 13.8 mph 29% 0 in CLR
18:29 93 °F 55 °F 29.9 in ENE 8.7 mph 10.4 mph 28% 0 in CLR
18:34 93 °F 55 °F 29.9 in East 8.7 mph 15 mph 28% 0 in CLR
18:39 92.8 °F 54.9 °F 29.9 in NE 8.5 mph 13.5 mph 28% 0 in CLR
18:44 92.7 °F 54.9 °F 29.9 in ENE 8.5 mph 11.5 mph 28% 0 in CLR
18:49 92.5 °F 54.7 °F 29.9 in NE 7.6 mph 11.5 mph 28% 0 in CLR
18:54 92.3 °F 54.5 °F 29.9 in East 7.6 mph 9.2 mph 28% 0 in CLR
18:59 92.1 °F 54.3 °F 29.9 in NE 7.6 mph 12.7 mph 28% 0 in CLR
19:04 91.9 °F 55 °F 29.9 in ENE 7.6 mph 6.9 mph 29% 0 in CLR
19:09 91.9 °F 54.1 °F 29.9 in NNE 5.9 mph 8.1 mph 28% 0 in CLR
19:14 91.8 °F 54 °F 29.9 in ENE 5.9 mph 10.4 mph 28% 0 in CLR
19:19 91.6 °F 54 °F 29.9 in NE 6.4 mph 11.8 mph 28% 0 in CLR
19:24 91 °F 53.4 °F 29.9 in NNE 6.4 mph 13.8 mph 28% 0 in CLR
19:29 91 °F 53.4 °F 29.9 in NE 8.7 mph 11.2 mph 28% 0 in CLR
19:34 90.9 °F 53.2 °F 29.9 in NE 8.7 mph 10.4 mph 28% 0 in CLR
19:39 90.9 °F 52.3 °F 29.9 in NE 6.9 mph 13.8 mph 27% 0 in CLR
19:44 90.7 °F 53.1 °F 29.9 in ENE 6.9 mph 15 mph 28% 0 in CLR
19:49 90.5 °F 52.9 °F 29.9 in NNE 8.7 mph 11.5 mph 28% 0 in CLR
19:54 90.5 °F 52 °F 29.9 in NE 8.7 mph 11.5 mph 27% 0 in CLR
19:59 90.3 °F 51.8 °F 29.9 in NNE 6.9 mph 13.8 mph 27% 0 in CLR
20:04 90.1 °F 51.6 °F 29.9 in NE 6.9 mph 13.8 mph 27% 0 in CLR
20:09 90.1 °F 51.6 °F 29.9 in ENE 7.6 mph 10.4 mph 27% 0 in CLR
20:14 90 °F 51.4 °F 29.9 in NE 7.6 mph 9.2 mph 27% 0 in CLR
20:19 90 °F 51.4 °F 29.9 in North 6.9 mph 9.2 mph 27% 0 in CLR
20:24 89.8 °F 51.3 °F 29.9 in NE 6.9 mph 10.4 mph 27% 0 in CLR
20:29 89.4 °F 51.1 °F 29.9 in NNE 7.4 mph 9.2 mph 27% 0 in CLR
20:34 89.1 °F 51.6 °F 29.9 in NE 7.4 mph 11.5 mph 28% 0 in CLR
20:39 88.5 °F 52.2 °F 29.9 in NNE 7.4 mph 9.2 mph 29% 0 in CLR
20:44 88.2 °F 52.9 °F 29.9 in NNE 7.4 mph 10.4 mph 30% 0 in CLR
20:49 87.6 °F 52.3 °F 29.9 in NE 8.1 mph 14.7 mph 30% 0 in CLR
20:54 87.3 °F 52.9 °F 29.9 in NNE 8.1 mph 12.7 mph 31% 0 in CLR
20:59 87.1 °F 53.6 °F 29.9 in North 8.1 mph 9.2 mph 32% 0 in CLR
21:04 86.7 °F 54.1 °F 29.9 in NNE 8.1 mph 10.4 mph 33% 0 in CLR
21:09 86.4 °F 54 °F 29.9 in ENE 6.9 mph 12.7 mph 33% 0 in CLR
21:14 86.2 °F 53.8 °F 29.9 in NNE 6.9 mph 15 mph 33% 0 in CLR
21:19 85.6 °F 54 °F 29.9 in NE 9.2 mph 15 mph 34% 0 in CLR
21:24 85.5 °F 54 °F 29.9 in NE 9.2 mph 11.5 mph 34% 0 in CLR
21:29 85.3 °F 52.9 °F 29.9 in NE 9.2 mph 9.2 mph 33% 0 in CLR
21:34 85.1 °F 52.9 °F 29.9 in NE 9.2 mph 12.7 mph 33% 0 in CLR
21:39 84.9 °F 52.5 °F 29.9 in NNE 8.5 mph 9.2 mph 33% 0 in CLR
21:44 84.9 °F 51.8 °F 29.9 in NE 8.5 mph 9.2 mph 32% 0 in CLR
21:49 84.7 °F 51.6 °F 29.9 in NNE 6.4 mph 6.9 mph 32% 0 in CLR
21:54 84.7 °F 51.6 °F 29.9 in North 6.4 mph 5.8 mph 32% 0 in CLR
21:59 84.6 °F 51.4 °F 29.9 in ENE 5.2 mph 11.5 mph 32% 0 in CLR
22:04 84.4 °F 52.2 °F 29.9 in East 5.2 mph 6.9 mph 33% 0 in CLR
22:09 84.4 °F 51.3 °F 29.9 in North 6.4 mph 9.2 mph 32% 0 in CLR
22:14 84 °F 51.1 °F 29.9 in NE 6.4 mph 8.1 mph 32% 0 in CLR
22:19 84 °F 51.1 °F 29.9 in ENE 5.2 mph 9.2 mph 32% 0 in CLR
22:24 83.8 °F 50.7 °F 29.9 in NE 5.2 mph 8.5 mph 32% 0 in CLR
22:29 83.8 °F 50.7 °F 29.9 in ENE 5.9 mph 5.8 mph 32% 0 in CLR
22:34 83.8 °F 50.7 °F 29.9 in NE 5.9 mph 6.9 mph 32% 0 in CLR
22:39 83.8 °F 50 °F 29.9 in ENE 5.4 mph 10.4 mph 31% 0 in CLR
22:44 83.8 °F 50 °F 29.9 in NE 5.4 mph 8.1 mph 31% 0 in CLR
22:49 83.7 °F 49.8 °F 29.9 in NNE 5.9 mph 9.2 mph 31% 0 in CLR
22:54 83.7 °F 50.7 °F 29.9 in ENE 5.9 mph 6.9 mph 32% 0 in CLR
22:59 83.5 °F 50.5 °F 29.9 in North 5.4 mph 8.1 mph 32% 0 in CLR
23:04 83.3 °F 49.5 °F 29.9 in ENE 5.4 mph 8.1 mph 31% 0 in CLR
23:09 83.1 °F 50.2 °F 29.9 in NE 5.2 mph 8.1 mph 32% 0 in CLR
23:14 82.8 °F 50.7 °F 29.9 in North 5.2 mph 9.2 mph 33% 0 in CLR
23:19 82.6 °F 52.2 °F 29.9 in NNE 6.2 mph 10.4 mph 35% 0 in CLR
23:24 82.6 °F 53.8 °F 29.9 in NNE 6.2 mph 5.9 mph 37% 0 in CLR
23:29 82.4 °F 54.1 °F 29.9 in WNW 4.7 mph 4.6 mph 38% 0 in CLR
23:34 82.2 °F 54.9 °F 29.9 in NNW 4.7 mph 5.2 mph 39% 0 in CLR
23:39 82 °F 55.2 °F 29.9 in NW 3.6 mph 5.8 mph 40% 0 in CLR
23:44 81.9 °F 56.5 °F 29.9 in NW 3.6 mph 4.6 mph 42% 0 in CLR
23:49 81.7 °F 57 °F 29.9 in North 4 mph 4.7 mph 43% 0 in CLR
23:54 81.7 °F 57 °F 29.9 in NNE 4 mph 5.9 mph 43% 0 in CLR
23:59 81.7 °F 57 °F 29.9 in NE 2.9 mph 4 mph 43% 0 in CLR
Murcia-Puente Tocinos, España
Compliments of Weather Underground - 2.75 mb

La estación de MeteoMurcia.com, publica sus datos en los siguientes proyectos:

Weather Underground PWS IMURCIAP2 Meteoclimatic www.awekas.at

W3Counter
Web Analytics